GOSAT 2 (43672 NORAD) Tracking and Keplerian Element Data

This shows tracking and keplerian element data for the satellite.

Feedback or suggestion? Click here.




ElementValue
Catalog43672
NameGOSAT 2
Epoch Orbit245
Epoch Day318.7059688
Epoch Year2018
RAAN69.0367
Inclination97.8286
Eccentricity0.0009401
Argument of Perigee224.0859
Mean Anonmoly135.734
Mean Motion14.86590518
Decay Rate-9.406E-05
L11 43672U 18084B 18318.70596880 -.00009406 00000-0 -10559-2 0 9990
L22 43672 97.8286 69.0367 0009401 224.0859 135.7340 14.86590518 2450

Live tracking and technical data element details for GOSAT 2 (NORAD 43672). GOSAT 2 can be tracked NOW for your location showing map with azimuth and elevation plus other details from your city location.

Track the satellite on the map from your city or location and see movement details for azimuth, elevation, latitude, longitude, range, height, and movement on the map or in text.







IsCatalogInMostPopularTable: catalog: 43672, numindb: 4
Update: records affected: 1



GetName: 43672 GOSAT 2

Hit Count: updated at: Fri, 16 Nov 2018 03:59:20 GMT